User: anonymous   Login
Location: Unspecified
(0.0000°N, 0.0000°E)
Time: 13:24:20
(UTC+01:00)
Language:

ATLAS V CENTAUR R/B - Orbit

View from above orbital plane
View from above orbital plane
View from above satellite
View from above satellite

Ground track
Ground track

The orbit data is extracted from the following two-line orbital elements,

1 27500U 02038B   15024.84893991  .00011693  00000-0  24372-2 0   801
2 27500 017.9331 159.7444 6920714 182.9850 353.5933 02.74925652100853
Epoch (UTC): 24 January 2015 20:22:28
Eccentricity: 0.6920714
inclination: 17.9331°
perigee height: 250 km
apogee height: 30042 km
right ascension of ascending node: 159.7444°
argument of perigee: 182.9850°
revolutions per day: 2.74925652
mean anomaly at epoch: 353.5933°
orbit number at epoch: 10085

The dashed part of the orbit path shows where the satellite is in the earth's shadow,  

DLR